sat.trackr.live / text

‹ back to catalog

STARLINK-5652

NORAD 55334 · 2023-013D

PAYLOAD ACTIVE UNKNOWN

§ Identity

Operator
Country
US
Launch date
2023-01-26
Launch site
AFETR
Launch vehicle
Mass (kg)
RCS (m²)

Purposes: comms

External: N2YO · Heavens-Above · Gunter

§ Orbital elements

Epoch: 2026-05-24T22:36:15.631776Z

Period
94.27 min
Inclination
43.0021°
Eccentricity
0.0001190
Mean motion
15.27578526 rev/d
Perigee alt
482.2 km
Apogee alt
483.9 km
Semi-major
6,861.2 km
B*
2.2659e-6
RAAN
232.8125°
Arg perigee
278.0883°
Mean anomaly
81.9834°
Rev number
18,333

§ Raw data

STARLINK-56521 55334U 23013D   26144.94184759 -.00000200  00000+0  22659-5 0  99942 55334  43.0021 232.8125 0001190 278.0883  81.9834 15.27578526183331

JSON: /api/v1/satellites/55334 · /tle

For live sub-satellite position, see the globe view (requires WebGL).

§ Visibility from observer

Set your observer location to see the next 7 days of passes ≥ 10°. The values pass through the URL so the page stays shareable.

No JS? Fill the form by hand. The geolocation button needs JavaScript.